www.pogodaiklimat.ru

Погода и климат >> Архив погоды >> Россия >> Ямало-Ненецкий АО >> Толька


АРХИВ ПОГОДЫ в Тольке

Время (UTC), дата Ветер
(напр.,м/с)
 
Видим.   Явления Облачность Т
(С)
Тd
(С)
f
(%)
Тe
(С)
Тes
(С)
Комфортность P
(гПа)
Po
(гПа)
Тmin
(С)
Tmax
(С)
R
(мм)
R24
(мм)
S
(см)
18 12.06 ЮВ 2 20 км 10/0
[Ac As]
+11.0 +6.2 72 +10 +10 997.1 993.0
21 12.06 ЮВ 2 50 км 10/5 600 м
[Sc Ac As]
+10.0 +7.0 82 +9 +9 994.5 990.4
00 13.06 ЮВ 2 50 км 10/6 600 м
[Sc Ac As]
+10.2 +7.5 83 +9 +9 991.4 987.3
03 13.06 ЮВ 2 10 км слаб. ливневой дождь 10/10 300 м
[Cb cap]
+10.2 +8.9 92 +9 +9 988.5 984.4 +9.9 0.0
06 13.06 ЮВ 3 10 км слаб. ливневой дождь 10/10 450 м
[Cb cap]
+11.4 +9.8 90 +10 +10 986.6 982.5
09 13.06 Ю 4
{11}
50 км {ливн. осадки} 9/9 300 м
[Cb cap]
+16.7 +7.7 55 +16 +17 985.1 981.1
12 13.06 Ю 4
{10}
50 км {ливн. осадки} 9/8 300 м
[Cb cap Ac trans]
+16.9 +5.4 47 +16 +17 984.5 980.6
15 13.06 З 4
{11}
4000 м слаб. ливневой дождь 10/10 300 м
[Cb cap]
+6.0 +4.0 87 +2 +2 986.7 982.5 +18.5 0.1
18 13.06 З 5
{11}
20 км {ливн. осадки} 10/8 300 м
[Cb cap Ac As]
+2.3 +0.2 86 -3 -3 988.7 984.5
21 13.06 З 3 50 км 10/8 300 м
[Cb cap Ac As]
+1.7 -0.3 87 -3 -3 990.9 986.7
00 14.06 ЮЗ 3 50 км 9/9 300 м
[Cb cap]
+2.7 -0.8 78 -1 -1 992.7 988.4
03 14.06 ЮЗ 3 50 км 8/8 300 м
[Cb cap]
+5.6 -1.6 60 +3 +4 993.8 989.6 +1.7 0.0
06 14.06 ЮЗ 4
{12}
4000 м слаб. крупа 8/8 450 м
[Cb cap]
+5.0 -1.9 61 +1 +3 995.9 991.7
09 14.06 З 3
{10}
50 км {ливн. осадки} 8/8 600 м
[Cb cap]
+7.1 -4.1 45 +5 +7 996.9 992.7
12 14.06 З 5-11
{11}
50 км {ливн. осадки} 6/6 600 м
[Cb cap]
+7.4 -2.7 49 +4 +5 997.5 993.4
15 14.06 ЮЗ 3
{12}
50 км в посл. час ливневой дождь 8/8 300 м
[Cb cap]
+4.9 +1.0 76 +2 +2 997.3 993.1 +8.9 0.5
18 14.06 Ю 3 20 км {ливн. осадки} 9/8 300 м
[Cb cap Ac trans]
+2.5 -1.0 78 -2 -2 997.3 993.1
21 14.06 ЮЗ 3
{10}
50 км 9/9 300 м
[Cb cap]
+2.7 -0.6 79 -1 -1 998.2 994.0
00 15.06 ЮЗ 4
{10}
50 км {ливн. осадки} 10/10 300 м
[Cb cap]
+2.7 +0.1 83 -2 -2 1000.4 996.1
03 15.06 З 3 50 км 9/4 300 м
[Cb cap Ac trans]
+5.0 +0.1 71 +2 +4 1002.6 998.4 +2.1 0.0
06 15.06 З 3 50 км в посл. час ливневой дождь 9/8 300 м
[Cb cap Ac trans]
+5.4 +0.3 70 +2 +4 1004.7 1000.5
09 15.06 З 3 50 км в посл. час ливневой дождь 8/8 600 м
[Cb cap]
+8.7 +0.7 57 +7 +8 1006.0 1001.8
12 15.06 З 2 50 км {ливн. осадки} 8/8 600 м
[Cb cap]
+9.6 -0.8 48 +9 +9 1007.6 1003.4
15 15.06 Ю 1 50 км 10/10 800 м
[Sc]
+8.5 +0.8 58 +8 +8 1008.6 1004.4 +10.4 0.3
18 15.06 ЮВ 1 20 км 10/10 900 м
[Sc]
+2.8 +2.0 94 +1 +1 1009.3 1005.0
21 15.06 Ю 1 50 км 10/10 1000 м
[Sc]
+6.3 +2.0 74 +5 +5 1008.9 1004.6
00 16.06 ЮВ 2 50 км 10/10 750 м
[Sc]
+7.5 +2.2 69 +6 +6 1009.4 1005.2
03 16.06 ЮВ 3 50 км 10/6 600 м
[Sc Ac As]
+9.7 +0.6 53 +8 +9 1008.8 1004.6 +2.4
06 16.06 ЮВ 2 10 км слаб. ливневой дождь 9/9 300 м
[Cb cap]
+10.4 +2.1 56 +9 +11 1007.9 1003.7
09 16.06 ЮВ 3 50 км {ливн. осадки} 8/4 600 м
[Cb cap Ac trans]
+12.1 +1.5 48 +11 +14 1006.3 1002.2
12 16.06 ЮВ 2 50 км {ливн. осадки} 10/6 600 м
[Cb cap Ac trans]
+11.5 +1.3 49 +11 +11 1006.0 1001.9
15 16.06 штиль 0 50 км 6/4 600 м
[Sc Ac trans]
+6.4 +4.7 89 +5 +6 1005.5 1001.3 +12.9 0.4
18 16.06 В 1 20 км местами туман поземный 4/0
[Ac trans]
+3.2 +2.6 96 +1 +1 1005.2 1000.9
21 16.06 штиль 0 50 км 9/0
[Ac trans]
+2.7 +2.2 97 +1 +1 1004.4 1000.2
00 17.06 штиль 0 50 км 3/0
[Ac trans]
+8.1 +5.0 81 +7 +10 1004.2 1000.0
03 17.06 Ю 2 50 км 4/0
[Ci fib]
+14.3 -0.7 36 +14 +21 1003.6 999.5 +2.0
06 17.06 Ю 3 50 км 8/4 600 м
[Cb cap Ci fib]
+15.8 -0.2 34 +16 +21 1002.5 998.4
09 17.06 ЮВ 2 50 км 6/4 600 м
[Cu hum Ci fib]
+16.9 -0.3 31 +17 +23 1002.0 997.9
12 17.06 ЮВ 2 50 км 3/3 600 м
[Cu hum]
+17.9 -0.1 30 +18 +21 1001.1 997.0
15 17.06 ЮВ 1 50 км ясно +16.2 +1.1 36 +17 +17 1000.8 996.8 +18.2
18 17.06 ЮВ 1 20 км ясно +6.6 +3.4 80 +6 +6 1000.2 996.0
21 17.06 ЮВ 2 50 км 3/0
[Ac trans]
+8.8 +3.4 69 +7 +7 998.9 994.7
00 18.06 Ю 1 4000 м слаб. ливневой дождь 10/8 300 м
[Cb cap Ac As]
+9.1 +6.3 83 +9 +9 999.2 995.0
03 18.06 ЮЗ 3 50 км {ливн. осадки} 9/8 300 м
[Cb cap Ac trans]
+12.3 +7.5 72 +11 +12 999.6 995.5 +6.5 2
06 18.06 Ю 3 50 км в посл. час ливневой дождь 8/8 300 м
[Cb cap]
+15.6 +4.7 48 +15 +17 999.6 995.5
09 18.06 ЮЗ 4
{10}
50 км {ливн. осадки} 8/8 300 м
[Cb cap]
+16.9 +3.2 40 +16 +18 1001.1 997.0
12 18.06 ЮЗ 2 50 км {ливн. осадки} 6/6 600 м
[Cb cap]
+16.9 +1.9 36 +17 +19 1001.5 997.4
15 18.06 штиль 0 50 км 6/6 600 м
[Cb cap]
+13.5 +7.0 65 +13 +13 1001.9 997.8 +17.8 0.5
18 18.06 ЮВ 1 20 км 10/0
[Ac trans Ci sp]
+6.6 +5.1 90 +5 +5 1001.6 997.4
21 18.06 В 1 50 км 10/0
[Ac As]
+9.2 +5.3 77 +9 +9 999.7 995.5
00 19.06 С 1 4000 м слаб. ливневой дождь 10/8 300 м
[Cb cap Ac As]
+9.5 +8.6 94 +9 +9 998.6 994.5
03 19.06 С 1 4000 м слаб. ливневой дождь 10/8 180 м
[Cb cap Ac As]
+10.8 +10.0 95 +10 +11 996.0 991.9 +6.5 3
06 19.06 СЗ 3 50 км в посл. час ливневой дождь 10/8 240 м
[Cb cap Ac As]
+11.4 +10.4 94 +9 +10 994.7 990.6
09 19.06 СЗ 3
{10}
50 км 10/8 330 м
[Cb cap Ac As]
+10.7 +9.2 90 +9 +9 995.9 991.8
12 19.06 СЗ 4
{11}
50 км в посл. час ливневой дождь 10/8 330 м
[Cb cap Ac As]
+9.0 +6.5 84 +6 +6 999.1 995.0
15 19.06 З 1 50 км ясно +10.6 +2.5 57 +11 +11 1002.2 998.0 +12.1 1

 

Местоположение метеостанции Толька (Ямало-Ненецкий АО, Россия): широта 63.98 долгота 82.08 высота над уровнем моря 35 м.

В архиве по умолчанию представлена погода в Тольке за последнюю неделю. Архивные данные за месяц целиком и за предыдущие месяцы, начиная с января 2011 года, Вы можете получить, выбрав интересующий диапазон дат из раскрывающегося списка и нажав кнопку "Ввод!".


*Определитесь, кто Вы:
робот инопланетянин человек

Внимание! Время в таблицах - всемирное. Для получения местного времени необходимо прибавить поправку, которая равна 5 ч.

Смотрите также архив погоды в соседних городах и на ближайших метеорологических станциях:

Погода в Красноселькупске (Ямало-Ненецкий АО, Россия) (192 км)
Погода в Халясавэе (Ямало-Ненецкий АО, Россия) (197 км)
Погода в Тарко-Сале (Ямало-Ненецкий АО, Россия) (229 км)
Погода в Верещагино (Красноярский край, Россия) (263 км)
Погода в Келлоге (Красноярский край, Россия) (268 км)
Погода в Корликах (Ханты-Мансийский АО, Россия) (273 км)
Погода в Уренгое (Ямало-Ненецкий АО, Россия) (279 км)
Погода в Верхнеимбатске (Красноярский край, Россия) (305 км)
Погода в Радужном (Ханты-Мансийский АО, Россия) (314 км)
Погода в Советской Речке (Красноярский край, Россия) (326 км)

Пояснения к столбцам:

Ветер - указаны скорость ветра в м/с - средняя за 10 мин, порывы в срок и между сроками (в фигурных скобках) и направление, откуда дует ветер: С - северный, СВ - северо-восточный, В - восточный, ЮВ - юго-восточный, Ю - южный, ЮЗ - юго-западный, З - западный, СЗ - северо-западный.
Видимость - горизонтальная дальность видимости в метрах или километрах. При видимости от 1 до 10 км при отсутствии осадков обычно наблюдается дымка, при ухудшении видимости до 1 км и менее - туман. В сухую погоду видимость может ухудшаться дымом, пылью или мглою.
Явления - указаны атмосферные явления, наблюдавшиеся в срок или в последний час перед сроком; фигурными скобками обозначены явления, наблюдавшиеся между сроками (за 1-3 часа до срока); квадратными скобками обозначены град или гололедные отложения с указанием их диаметра в мм.
Облачность - указаны через наклонную черту общая и нижняя облачность в баллах и высота нижней границы облаков в метрах; квадратными скобками обозначены формы облаков: Ci - перистые, Cs - перисто-слоистые, Cc - перисто-кучевые, Ac - высококучевые, As - высокослоистые, Sc - слоисто-кучевые, Ns - слоисто-дождевые, Cu - кучевые, Cb - кучево-дождевые. Подробнее классификацию облаков см. в Атласе облаков (PDF).
T - Температура воздуха - температура, измеренная на высоте 2 м над землей.
Td - Температура точки росы - температура, при понижении до которой содержащийся в воздухе водяной пар достигнет насыщения.
f - Относительная влажность воздуха - влажноcть воздуха, измеренная на высоте 2 м над землей.
Te - Эффективная температура - температура, которую ощущает одетый по сезону человек в тени. Характеристика душности погоды. При расчете учитывается влияние влажности воздуха и скорости ветра на теплоощущения человека.
Tes - Эффективная температура на солнце - температура, которую ощущает человек, с поправкой на солнечный нагрев. Характеристика знойности погоды. Зависит от высоты солнца над горизонтом, облачности и скорости ветра. Ночью, в пасмурную погоду, а также при ветре 12 м/с и более поправка равна нулю.
P - Атмосферное давление - приведенное к уровню моря атмосферное давление.
Po - Атмосферное давление - измеренное на уровне метеостанции атмосферное давление.
Tmin - Минимальная температура - минимум температуры воздуха на высоте 2 м над землей.
Tmax - Максимальная температура - максимум температуры воздуха на высоте 2 м над землей.
R - Количество осадков - Количество выпавших осадков за период времени, мм. При наведении курсора мыши на число - период времени, за который выпало указанное количество осадков.
R24 - Количество осадков - Количество выпавших осадков за 24 часа, мм.
S - Снежный покров - Высота снежного покрова, см. При наведении курсора мыши на число - состояние снежного покрова и степень покрытия местности в баллах.